Location: Harwich
(41.7160°N, 69.9939°W)
Time: 14:29:01
(UTC+01:00)

A-11 Canister half - Pass Details

Date: 04 December 2023
Orbit: 1526 x 1682 km, 47.3° (Epoch: 01 March)

Event Time Altitude Azimuth Distance (km) Brightness Sun altitude
Rises 05:53:49 0° 293° (WNW) 4,916 - -69.9°
Reaches altitude 10° 05:57:01 10° 294° (WNW) 3,914 - -69.7°
Maximum altitude 06:07:05 84° 24° (NNE) 1,636 - -69.0°
Drops below altitude 10° 06:16:48 10° 113° (ESE) 3,786 - -68.2°
Sets 06:19:50 0° 114° (ESE) 4,749 - -67.9°
